Location: Newark
(21.1200°N, 73.4000°E)
Time: 20:59:59
(UTC+00:00)

SR - Pass Details

Date: 02 February 2020
Orbit: 575 x 880 km, 66.7° (Epoch: 26 February)

Event Time Altitude Azimuth Distance (km) Brightness Sun altitude
Rises 13:59:36 0° 190° (S) 3,292 ? -14.9°
Reaches altitude 10° 14:02:01 10° 185° (S) 2,403 ? -15.5°
Maximum altitude 14:07:27 54° 109° (ESE) 1,027 ? -16.7°
Enters shadow 14:11:22 20° 39° (NE) 1,893 ? -17.6°
Drops below altitude 10° 14:13:10 10° 33° (NNE) 2,524 - -18.0°
Sets 14:15:44 0° 29° (NNE) 3,472 - -18.6°
